Regional Weather Roundup
Issued by NWS

Home | Current Version | Previous Version | Graphics & Text | Print | Product List | Glossary Off
Versions: 1 2 3 4 5 6 7 8 9 10 11 12 13 14 15 16 17 18 19 20 21 22 23 24 25 26 27 28 29 30 31 32 33 34 35 36 37 38 39 40 41 42 43 44 45 46 47 48 49 50

000
ASUS43 KTOP 160208
RWRKS

WEATHER ROUNDUP FOR KANSAS
NATIONAL WEATHER SERVICE GOODLAND KS
800 PM CST SUN JAN 15 2017

NOTE:  "FAIR" INDICATES FEW OR NO CLOUDS BELOW 12,000 FEET WITH NO
SIGNIFICANT WEATHER AND/OR OBSTRUCTIONS TO VISIBILITY.

KSZ001>006-013>018-027>032-041>047-160300-
NORTHWEST KANSAS

CITY           SKY/WX    TMP DP  RH WIND       PRES   REMARKS
GOODLAND       CLOUDY    30  29  96 E6        29.99R
HAYS           CLOUDY    30  29  96 NE7       30.06F
HILL CITY      CLOUDY    30  30 100 E7        30.08R FOG
RUSSELL        CLOUDY    30  29  96 NE8       30.05F FOG
$$

KSZ061>065-074>080-084>089-160300-
SOUTHWEST KANSAS

CITY           SKY/WX    TMP DP  RH WIND       PRES   REMARKS
DODGE CITY     FRZ RAIN  31  30  96 NE12      30.01F WCI  22
ELKHART          N/A     30  24  78 N7          N/A
GARDEN CITY    FRZ RAIN  31  29  92 NE14      29.98F WCI  21
GREAT BEND     CLOUDY    31  30  96 NE10      30.06R WCI  22
LIBERAL        CLOUDY    34  28  80 CALM      29.95S
PRATT          MIX PCPN  29  29  99 NE3       30.01F
$$

KSZ066>073-081>083-090>101-160300-
SOUTHEAST KANSAS

CITY           SKY/WX    TMP DP  RH WIND       PRES   REMARKS
CHANUTE        LGT RAIN  37  37 100 NE6       30.09S FOG
HUTCHINSON     CLOUDY    33  32  96 NE9       30.05F FOG
MEDICINE LODGE   N/A     32  31  96 N9        30.01R
NEWTON         CLOUDY   N/A N/A N/A NE8       30.06F HAZE
PARSONS        LGT RAIN  39  38  96 NE6       30.07F FOG
WICHITA INTL   CLOUDY    34  34 100 NE9       30.04F
WICHITA JABRA  CLOUDY    33  32  96 NE8       30.04F
WICHITA MCCONL LGT RAIN  34  33  97 NE8       30.03F
WINFIELD       MIX PCPN  37  37 100 NE9       30.02F FOG
$$

KSZ007>012-019>026-033>040-048>060-102>105-160300-
NORTHEAST KANSAS

CITY           SKY/WX    TMP DP  RH WIND       PRES   REMARKS
CONCORDIA      MIX PCPN  31  31 100 E8        30.11S
EMPORIA        CLOUDY    33  33 100 E8        30.09F FOG
LAWRENCE       MIX PCPN  32  32 100 E9        30.15F FOG
MANHATTAN      LGT RAIN  33  31  92 E8        30.12S
MARYSVILLE     LGT RAIN  32  32 100 E6        30.13S
OLATHE IND     CLOUDY    33  32  96 E8        30.13S FOG
OLATHE EXE     FOG       32  32 100 E13       30.13F VSB 1/2 WCI  22
SALINA         CLOUDY    32  30  92 N6        30.11S FOG
TOPEKA BILLARD LGT RAIN  33  30  88 NE12      30.13F WCI  24
TOPEKA FORBES  LGT RAIN  33  32  96 E7        30.13R FOG
$$




USA.gov is the U.S. government's official web portal to all federal, state and local government web resources and services.